Showing default

TIANQI 38, 67477

Orbit data source: Space-Track

TIANQI 38, 67477 is a payload satellite owned by Guodian Gaokeji (CN) in LEO that was launched on Thu, 15 Jan 2026 UTC via a GUSHENXING 1 launch vehicle from the Yellow Sea Launch Area, China (YSLA). Payload-class satellites include a variety of spacecraft equipped with specific instruments for various scientific and technological missions. These include communications satellites like Starlink; space stations such as the ISS; scientific satellites like the Hubble; Earth observation satellites from companies like Planet Labs, Umbra, and HawkEye 360; GPS; miniature CubeSats for education and research; and military/defense satellites.

Loading next visibility...
Identifier
67477, 2026-010B
Orbit
LEO
Country
Flag of CNCN / PRC
Related business
Manufacturer
Shanghai ASES
Mission
Operational Commercial Communications
Bus & Motor
STARLIGHTB, Unknown motor
Mass
40 kg wet, ~40 kg dry
Launch date (UTC)
2026-01-15 (5 months ago)
Launch vehicle
GUSHENXING 1
Launch site
Yellow Sea Launch Area, China (YSLA)
Object type
Payload
Rocket body
Debris
Shape & HBR
Box, 0.5 m
Radar Cross Section
0.195 m², Medium (>0.1 m² and < 1m²)

Expand to show TLE details & history
Last TLE update: 10 hours ago

TLE from 10 hours ago
0 TIANQI 38
1 67477U 26010B   26171.44327529  .00000027  00000-0  10695-3 0  9996
2 67477  44.9790  67.0216 0011151 347.4547  12.6007 13.99160572 21856
Epoch: 2026-06-20T10:38Z
TLE epoch observation values (Epoch: 2026-06-20T10:38:18.985Z)
Latitude
0.00002°
Longitude
-1.21531°
Altitude
888.785 km
Speed
7.413 km/s
True Right ascension
04h 28m 05s
True Declination
0° 00' 00"
Sunlit
Object was in daylight at epoch
Visualization orbit readout
Latitude
Unknown
Longitude
Unknown
Altitude
Unknown
Speed
Unknown
Apparent Right ascension
Unknown
Apparent Declination
Unknown
Sunlit
N/A
Visualization observer readout
Local Sidereal Time
07:18:47
Azimuth
Unknown
Elevation
Unknown
Doppler factor
Unknown
Orbital elements
Apogee altitude
906.339 km
Perigee altitude
890.111 km
Semi-major axis
7,276.362 km
Eccentricity
0.00112
Inclination
44.979°
RAAN
67.0216°
Arg. of periapsis
347.4547°
True anomaly
12.62861°
Mean anomaly
12.6007°
Eccentric anomaly
12.61465°
Mean motion
3.49681 °/min
Orbital period
102.95 mins
BSTAR
0.00010695
Loading maneuver chart data...
Computing Atmospheric mass density...
Loading historical data...
Loading historical data...
Loading historical data...
Loading historical data...
Loading historical data...
Loading historical data...
Loading historical data...
Other satellites on launch #10 in the year 2026 (2026-01-15 UTC)

Documentation

Showing up to 5 results
|